EN

Hourly Weather Okaliniec

Today, 18 May, Tuesday

Time Temperature Precipitation Wind Pressure Humidity
00:00 +12°C° 0 mm 2 mps 744 mmHg 91%
01:00 +10°C° 0 mm 2 mps 745 mmHg 92%
02:00 +10°C° 0.1 mm 2 mps 745 mmHg 93%
03:00 +10°C° 0.1 mm 2 mps 745 mmHg 94%
04:00 +10°C° 0.1 mm 2 mps 745 mmHg 95%
05:00 +10°C° 0 mm 2 mps 745 mmHg 92%
06:00 +11°C° 0 mm 3 mps 745 mmHg 90%
07:00 +12°C° 0 mm 3 mps 746 mmHg 87%
08:00 +13°C° 0.2 mm 3 mps 746 mmHg 83%
09:00 +14°C° 0.2 mm 4 mps 746 mmHg 78%
10:00 +15°C° 0.2 mm 4 mps 746 mmHg 74%
11:00 +15°C° 0.6 mm 4 mps 746 mmHg 73%
12:00 +15°C° 0.6 mm 4 mps 746 mmHg 72%
13:00 +15°C° 0.6 mm 5 mps 746 mmHg 71%
14:00 +15°C° 0.6 mm 5 mps 746 mmHg 73%
15:00 +15°C° 0.6 mm 5 mps 747 mmHg 75%
16:00 +15°C° 0.6 mm 5 mps 747 mmHg 77%
17:00 +14°C° 0.5 mm 4 mps 747 mmHg 81%
18:00 +13°C° 0.5 mm 4 mps 747 mmHg 85%
19:00 +12°C° 0.5 mm 3 mps 747 mmHg 89%
20:00 +11°C° 0.1 mm 3 mps 748 mmHg 91%
21:00 +10°C° 0.1 mm 3 mps 748 mmHg 93%
22:00 +9°C° 0.1 mm 3 mps 748 mmHg 96%
23:00 +8°C° 0 mm 3 mps 748 mmHg 96%

Tomorrow, 19 May, Wednesday

Time Temperature Precipitation Wind Pressure Humidity
00:00 +8°C° 0 mm 2 mps 748 mmHg 96%
01:00 +7°C° 0 mm 2 mps 748 mmHg 96%
02:00 +7°C° 0 mm 2 mps 748 mmHg 96%
03:00 +6°C° 0 mm 2 mps 749 mmHg 95%
04:00 +6°C° 0 mm 2 mps 749 mmHg 95%
05:00 +7°C° 0 mm 3 mps 749 mmHg 92%
06:00 +9°C° 0 mm 3 mps 749 mmHg 89%
07:00 +10°C° 0 mm 4 mps 749 mmHg 86%
08:00 +12°C° 0.1 mm 4 mps 750 mmHg 79%
09:00 +13°C° 0.1 mm 4 mps 750 mmHg 72%
10:00 +14°C° 0.1 mm 4 mps 750 mmHg 65%
11:00 +14°C° 0.3 mm 4 mps 750 mmHg 67%
12:00 +14°C° 0.3 mm 4 mps 750 mmHg 69%
13:00 +14°C° 0.3 mm 3 mps 750 mmHg 71%
14:00 +13°C° 0.3 mm 3 mps 750 mmHg 74%
15:00 +13°C° 0.3 mm 3 mps 750 mmHg 76%
16:00 +12°C° 0.3 mm 3 mps 751 mmHg 79%
17:00 +11°C° 0.1 mm 3 mps 751 mmHg 79%
18:00 +11°C° 0.1 mm 3 mps 751 mmHg 80%
19:00 +10°C° 0.1 mm 3 mps 751 mmHg 80%
20:00 +9°C° 0 mm 2 mps 752 mmHg 82%
21:00 +8°C° 0 mm 2 mps 752 mmHg 83%
22:00 +7°C° 0 mm 2 mps 752 mmHg 85%
23:00 +6°C° 0 mm 2 mps 752 mmHg 85%

Day after tomorrow, 20 May, Thursday

Time Temperature Precipitation Wind Pressure Humidity
00:00 +6°C° 0 mm 2 mps 752 mmHg 86%
01:00 +5°C° 0 mm 2 mps 752 mmHg 87%
02:00 +5°C° 0 mm 2 mps 753 mmHg 88%
03:00 +5°C° 0 mm 2 mps 753 mmHg 90%
04:00 +5°C° 0 mm 2 mps 753 mmHg 91%
05:00 +7°C° 0 mm 2 mps 753 mmHg 87%
06:00 +8°C° 0 mm 2 mps 753 mmHg 83%
07:00 +10°C° 0 mm 2 mps 754 mmHg 79%
08:00 +11°C° 0.2 mm 3 mps 754 mmHg 76%
09:00 +13°C° 0.2 mm 3 mps 754 mmHg 72%
10:00 +14°C° 0.2 mm 3 mps 754 mmHg 68%
11:00 +14°C° 0.3 mm 4 mps 754 mmHg 69%
12:00 +14°C° 0.3 mm 5 mps 754 mmHg 70%
13:00 +13°C° 0.3 mm 5 mps 754 mmHg 70%
14:00 +13°C° 0.2 mm 5 mps 754 mmHg 67%
15:00 +13°C° 0.2 mm 5 mps 754 mmHg 64%
16:00 +13°C° 0.2 mm 5 mps 754 mmHg 61%
17:00 +12°C° 0 mm 5 mps 754 mmHg 65%
18:00 +11°C° 0 mm 4 mps 755 mmHg 69%
19:00 +10°C° 0 mm 3 mps 755 mmHg 73%
20:00 +9°C° 0 mm 3 mps 755 mmHg 76%
21:00 +7°C° 0 mm 3 mps 755 mmHg 80%
22:00 +5°C° 0 mm 3 mps 755 mmHg 83%
23:00 +5°C° 0 mm 3 mps 755 mmHg 86%

21 May, Friday

Time Temperature Precipitation Wind Pressure Humidity
00:00 +4°C° 0 mm 3 mps 755 mmHg 89%
01:00 +4°C° 0 mm 3 mps 755 mmHg 91%
02:00 +3°C° 0 mm 3 mps 755 mmHg 92%
03:00 +4°C° 0 mm 2 mps 755 mmHg 92%
04:00 +4°C° 0 mm 2 mps 755 mmHg 93%
05:00 +5°C° 0 mm 3 mps 755 mmHg 86%
06:00 +7°C° 0 mm 3 mps 755 mmHg 80%
07:00 +8°C° 0 mm 4 mps 755 mmHg 74%
08:00 +10°C° 0 mm 4 mps 755 mmHg 65%
09:00 +11°C° 0 mm 4 mps 754 mmHg 57%
10:00 +12°C° 0 mm 4 mps 754 mmHg 48%
11:00 +13°C° 0 mm 4 mps 754 mmHg 47%
12:00 +14°C° 0 mm 4 mps 753 mmHg 46%
13:00 +15°C° 0 mm 4 mps 753 mmHg 44%
14:00 +15°C° 0 mm 4 mps 752 mmHg 47%
15:00 +16°C° 0 mm 3 mps 752 mmHg 49%
16:00 +17°C° 0 mm 3 mps 752 mmHg 51%
17:00 +16°C° 0 mm 3 mps 751 mmHg 57%
18:00 +14°C° 0 mm 2 mps 751 mmHg 63%
19:00 +13°C° 0 mm 2 mps 751 mmHg 70%
20:00 +13°C° 0 mm 2 mps 750 mmHg 73%
21:00 +12°C° 0 mm 2 mps 750 mmHg 76%
22:00 +12°C° 0 mm 2 mps 750 mmHg 79%
23:00 +11°C° 0 mm 3 mps 750 mmHg 82%

22 May, Saturday

Time Temperature Precipitation Wind Pressure Humidity
00:00 +10°C° 0 mm 3 mps 749 mmHg 85%
01:00 +10°C° 0 mm 3 mps 749 mmHg 88%
02:00 +9°C° 0 mm 3 mps 748 mmHg 89%
03:00 +9°C° 0 mm 3 mps 747 mmHg 89%
04:00 +9°C° 0 mm 3 mps 747 mmHg 89%
05:00 +10°C° 0 mm 4 mps 747 mmHg 85%
06:00 +10°C° 0 mm 5 mps 746 mmHg 80%
07:00 +11°C° 0 mm 6 mps 746 mmHg 75%
08:00 +12°C° 0.1 mm 5 mps 746 mmHg 79%
09:00 +12°C° 0.1 mm 5 mps 746 mmHg 83%
10:00 +10°C° 0.1 mm 5 mps 747 mmHg 87%
11:00 +12°C° 0.2 mm 5 mps 747 mmHg 83%
12:00 +13°C° 0.2 mm 5 mps 747 mmHg 78%
13:00 +14°C° 0.2 mm 5 mps 747 mmHg 74%
14:00 +14°C° 0.1 mm 5 mps 747 mmHg 71%
15:00 +15°C° 0.1 mm 4 mps 747 mmHg 68%
16:00 +16°C° 0.1 mm 3 mps 747 mmHg 64%
17:00 +14°C° 0.1 mm 3 mps 747 mmHg 68%
18:00 +13°C° 0.1 mm 3 mps 747 mmHg 72%
19:00 +12°C° 0.1 mm 3 mps 747 mmHg 75%
20:00 +10°C° 0 mm 3 mps 748 mmHg 79%
21:00 +9°C° 0 mm 3 mps 748 mmHg 82%
22:00 +8°C° 0 mm 2 mps 748 mmHg 86%
23:00 +7°C° 0 mm 2 mps 748 mmHg 86%

23 May, Sunday

Time Temperature Precipitation Wind Pressure Humidity
00:00 +7°C° 0 mm 3 mps 748 mmHg 87%
01:00 +5°C° 0 mm 3 mps 748 mmHg 87%
02:00 +5°C° 0 mm 3 mps 748 mmHg 88%
03:00 +5°C° 0 mm 3 mps 748 mmHg 88%
04:00 +5°C° 0 mm 3 mps 748 mmHg 89%
05:00 +8°C° 0 mm 3 mps 748 mmHg 84%
06:00 +8°C° 0 mm 4 mps 748 mmHg 80%
07:00 +11°C° 0 mm 4 mps 748 mmHg 75%
08:00 +12°C° 0 mm 4 mps 748 mmHg 70%
09:00 +14°C° 0 mm 5 mps 748 mmHg 66%
10:00 +15°C° 0 mm 5 mps 749 mmHg 62%
11:00 +15°C° 0.1 mm 5 mps 749 mmHg 62%
12:00 +15°C° 0.1 mm 5 mps 749 mmHg 63%
13:00 +15°C° 0.1 mm 5 mps 749 mmHg 63%
14:00 +15°C° 0 mm 5 mps 749 mmHg 63%
15:00 +15°C° 0 mm 4 mps 749 mmHg 62%
16:00 +15°C° 0 mm 4 mps 749 mmHg 62%
17:00 +14°C° 0.1 mm 4 mps 749 mmHg 68%
18:00 +12°C° 0.1 mm 3 mps 750 mmHg 74%
19:00 +11°C° 0.1 mm 3 mps 750 mmHg 80%
20:00 +10°C° 0 mm 3 mps 751 mmHg 84%
21:00 +9°C° 0 mm 3 mps 751 mmHg 88%
22:00 +8°C° 0 mm 3 mps 752 mmHg 93%
23:00 +7°C° 0 mm 3 mps 752 mmHg 93%
Show more

We Need Your Consent

Meteoprog and our Service Providers may store and access personal data such as cookies, device identifiers or other similar technologies on your device and process such data to personalise content and ads, as well as provide social media features and to analyse the traffic.

  • Store and/or access information on your device

    Cookies, device identifiers or other information can be stored or accessed on your device for the purposes indicated above.

  • Personalised ads and content, ad and content measurement, audience insights, and products development

    Ads and content can be personalised based on a profile. More data can be added to better personalise ads and content. Ad and content performance can be measured. Insights about the audience who saw the ads and content can be derived. Such data can be used to develop or improve user’s experience, systems and software.

By clicking ‘I Agree’ you will allow the use of indicated cookies, device identifiers, web beacons or other similar technologies. Your settings can be changed in the browser on your device.

For certain purposes, legitimate interests may be relied on, rather than consent. You can read more about this in our Privacy and Cookie Policy.